DW4184 Weather Reports


time (UTC)temp
C
wind
direction
speed
KPH
gust
KPH
rain 1hr
cm
rain 24hr
cm
rain mn
cm
humidity
%
barometer
mb
20260906095400 20 324 0.0 0.0 0.00 0.00 0.00 97 1009.1
20260906094852 20 324 0.0 0.0 0.00 0.00 0.00 97 1009.1
20260906093714 20 324 0.0 0.0 0.00 0.00 0.00 97 1009.1
20260906093221 20 324 0.0 3.2 0.00 0.00 0.00 97 1009.0
20260906092714 20 342 0.0 0.0 0.00 0.00 0.00 97 1009.0
20260906092209 20 342 0.0 0.0 0.00 0.00 0.00 97 1009.0
20260906091049 20 342 0.0 0.0 0.00 0.00 0.00 97 1008.8
20260906090536 20 342 0.0 0.0 0.00 0.00 0.00 97 1008.9
20260906090017 20 342 0.0 0.0 0.00 0.00 0.00 97 1008.8
20260906085458 20 342 0.0 0.0 0.00 0.00 0.00 97 1008.7
20260906084959 20 342 0.0 0.0 0.00 0.00 0.00 97 1008.5
20260906084446 20 342 0.0 1.6 0.00 0.00 0.00 97 1008.5
20260906082700 21 318 0.0 0.0 0.00 0.00 0.00 97 1008.5
20260906082150 21 318 0.0 0.0 0.00 0.00 0.00 97 1008.6
20260906081033 21 333 0.0 4.8 0.00 0.00 0.00 97 1008.7
20260906080543 21 336 0.0 3.2 0.00 0.00 0.00 97 1008.7
20260906080040 21 317 0.0 1.6 0.00 0.00 0.00 97 1008.6
20260906074919 21 317 0.0 0.0 0.00 0.00 0.00 97 1008.4
20260906073754 21 317 0.0 0.0 0.00 0.00 0.00 97 1008.3
20260906073258 21 317 0.0 0.0 0.00 0.00 0.00 97 1008.3
20260906072747 21 317 0.0 0.0 0.00 0.00 0.00 97 1008.3
20260906072234 21 317 0.0 0.0 0.00 0.00 0.00 97 1008.4
20260906071730 21 317 0.0 0.0 0.00 0.00 0.00 97 1008.4
20260906071240 21 317 0.0 0.0 0.00 0.00 0.00 97 1008.4
20260906070727 21 317 0.0 0.0 0.00 0.00 0.00 97 1008.5
20260906070216 21 317 0.0 0.0 0.00 0.00 0.00 97 1008.6
20260906065705 21 317 0.0 0.0 0.00 0.00 0.00 97 1008.8
20260906065207 21 317 0.0 0.0 0.00 0.00 0.00 97 1008.9
20260906064657 21 317 0.0 0.0 0.00 0.00 0.00 97 1008.9
20260906064146 21 317 0.0 1.6 0.00 0.00 0.00 97 1008.9
20260906063637 21 0 0.0 0.0 0.00 0.00 0.00 97 1009.0
20260906063123 21 0 0.0 0.0 0.00 0.00 0.00 97 1009.0
20260906062619 21 0 0.0 0.0 0.00 0.00 0.00 97 1008.9
20260906062118 21 0 0.0 0.0 0.00 0.00 0.00 97 1008.9
20260906061615 21 0 0.0 0.0 0.00 0.00 0.00 97 1008.8
20260906061101 21 0 0.0 0.0 0.00 0.00 0.00 97 1009.0
20260906060607 21 0 0.0 0.0 0.00 0.00 0.00 97 1009.1
20260906060107 21 0 0.0 0.0 0.00 0.00 0.00 97 1009.2
20260906055555 21 0 0.0 0.0 0.00 0.00 0.00 97 1008.9
20260906055038 21 0 0.0 0.0 0.00 0.00 0.00 96 1009.0
20260906053926 21 0 0.0 0.0 0.00 0.00 0.00 97 1009.2
20260906052805 21 0 0.0 0.0 0.00 0.00 0.00 96 1009.3
20260906052300 21 0 0.0 0.0 0.00 0.00 0.00 96 1009.4
20260906051752 21 0 0.0 0.0 0.00 0.00 0.00 96 1009.3
20260906051301 21 0 0.0 0.0 0.00 0.00 0.00 96 1009.4
20260906050802 21 0 0.0 0.0 0.00 0.00 0.00 96 1009.4
20260906050257 21 0 0.0 0.0 0.00 0.00 0.00 96 1009.3
20260906042640 21 0 0.0 0.0 0.00 0.00 0.00 96 1009.4
20260906042121 21 0 0.0 0.0 0.00 0.00 0.00 96 1009.4
20260906041620 22 0 0.0 1.6 0.00 0.00 0.00 96 1009.6
20260906041108 22 0 0.0 0.0 0.00 0.00 0.00 96 1009.6
20260906040609 22 0 0.0 0.0 0.00 0.00 0.00 96 1009.5
20260906040100 22 0 0.0 0.0 0.00 0.00 0.00 96 1009.7
20260906034953 22 331 0.0 4.8 0.00 0.00 0.00 96 1009.8
20260906033833 22 340 0.0 0.0 0.00 0.00 0.00 96 1009.8
20260906033333 22 344 0.0 0.0 0.00 0.00 0.00 96 1009.5
20260906032826 22 344 0.0 0.0 0.00 0.00 0.00 96 1009.4
20260906032335 22 344 0.0 0.0 0.00 0.00 0.00 96 1009.5
20260906031842 22 344 0.0 0.0 0.00 0.00 0.00 96 1009.6
20260906031337 22 344 0.0 0.0 0.00 0.00 0.00 96 1009.6
20260906030836 22 344 0.0 0.0 0.00 0.00 0.00 96 1009.6
20260906030343 22 344 0.0 0.0 0.00 0.00 0.00 96 1009.6
20260906025156 22 344 0.0 0.0 0.00 0.00 0.00 96 1010.1
20260906024654 22 309 0.0 0.0 0.00 0.00 0.00 96 1009.9
20260906024203 22 309 0.0 1.6 0.00 0.00 0.00 96 1010.1
20260906023702 22 309 0.0 0.0 0.00 0.00 0.00 96 1010.0
20260906023209 22 309 0.0 0.0 0.00 0.00 0.00 96 1010.1
20260906022708 22 309 0.0 6.4 0.00 0.00 0.00 96 1010.1
20260906021549 22 323 0.0 4.8 0.00 0.00 0.00 96 1010.0
20260906021057 22 355 0.0 0.0 0.00 0.00 0.00 96 1010.3
20260906020603 22 71 0.0 0.0 0.00 0.00 0.00 96 1010.2
20260906015434 22 71 0.0 0.0 0.00 0.00 0.00 95 1010.3
20260906014315 22 355 0.0 0.0 0.00 0.00 0.00 95 1009.8
20260906013757 22 355 0.0 0.0 0.00 0.00 0.00 95 1009.8
20260906013251 22 355 0.0 0.0 0.00 0.00 0.00 95 1009.7
20260906012144 23 23 0.0 0.0 0.00 0.00 0.00 95 1009.7
20260906011643 23 324 0.0 0.0 0.00 0.00 0.00 95 1009.6
20260906011141 23 152 0.0 0.0 0.00 0.00 0.00 94 1009.6
20260906010643 23 152 0.0 0.0 0.00 0.00 0.00 94 1009.5
20260906005509 23 280 0.0 0.0 0.00 0.00 0.00 94 1009.4
20260906005010 23 311 0.0 0.0 0.00 0.00 0.00 95 1009.2
20260906004508 23 72 0.0 0.0 0.00 0.00 0.00 94 1009.2
20260906004004 23 84 0.0 0.0 0.00 0.00 0.00 94 1009.1
20260906003454 23 336 0.0 0.0 0.00 0.00 0.00 94 1009.0
20260906002952 23 336 0.0 0.0 0.00 0.00 0.00 94 1008.9
20260906002439 23 336 0.0 0.0 0.00 0.00 0.00 93 1008.8
20260906001945 23 336 0.0 0.0 0.00 0.00 0.00 93 1008.9
20260906001426 23 336 0.0 0.0 0.00 0.00 0.00 93 1008.9
20260906000934 23 177 0.0 0.0 0.00 0.00 0.00 92 1008.9
20260906000418 23 177 0.0 0.0 0.00 0.00 0.00 92 1008.9
20260905235907 23 177 0.0 0.0 0.00 0.00 0.00 92 1009.0
20260905235350 24 177 0.0 0.0 0.00 0.00 0.00 91 1008.9
20260905234854 24 225 0.0 0.0 0.00 0.00 0.00 91 1009.0
20260905233721 25 241 0.0 0.0 0.00 0.00 0.00 90 1008.5
20260905232611 25 241 0.0 0.0 0.00 0.00 0.00 89 1008.8
20260905232054 25 342 0.0 0.0 0.00 0.00 0.00 91 1008.8
20260905231545 25 301 0.0 0.0 0.00 0.00 0.00 92 1008.6
20260905230416 25 301 0.0 0.0 0.00 0.00 0.00 89 1008.9
20260905225250 26 194 0.0 0.0 0.00 0.00 0.00 90 1008.7
20260905223525 26 213 0.0 0.0 0.00 0.00 0.00 87 1008.5
20260905223021 26 227 0.0 0.0 0.00 0.00 0.00 86 1008.5
20260905222504 26 135 0.0 0.0 0.00 0.00 0.00 88 1008.4
20260905222000 26 135 0.0 0.0 0.00 0.00 0.00 88 1008.3
20260905221502 26 135 0.0 0.0 0.00 0.00 0.00 86 1008.5
20260905220951 27 294 0.0 4.8 0.00 0.00 0.00 85 1008.6
20260905220434 27 252 0.0 4.8 0.00 0.00 0.00 84 1008.8
20260905215311 26 120 0.0 0.0 0.00 0.00 0.00 88 1009.1
20260905213535 26 120 0.0 0.0 0.00 0.00 0.00 88 1008.4
20260905213034 26 120 0.0 0.0 0.00 0.00 0.00 89 1008.3
20260905212516 26 120 0.0 0.0 0.00 0.00 0.00 88 1008.4
20260905212003 26 120 0.0 1.6 0.00 0.00 0.00 86 1008.3
20260905211448 26 120 0.0 1.6 0.00 0.00 0.00 87 1008.5
20260905210938 26 120 0.0 0.0 0.00 0.00 0.00 87 1008.4
20260905210442 27 120 0.0 1.6 0.00 0.00 0.00 85 1008.5
20260905205925 27 120 0.0 0.0 0.00 0.00 0.00 84 1008.8
20260905204756 27 120 1.6 8.0 0.00 0.00 0.00 83 1008.8
20260905204302 28 117 1.6 12.9 0.00 0.00 0.00 79 1008.7
20260905203744 28 159 1.6 12.9 0.00 0.00 0.00 75 1008.8
20260905203234 29 223 1.6 14.5 0.00 0.00 0.00 75 1008.9
20260905202726 29 295 3.2 14.5 0.00 0.00 0.00 73 1009.2
20260905202211 28 250 3.2 14.5 0.00 0.00 0.00 72 1009.1
20260905201703 28 302 3.2 14.5 0.00 0.00 0.00 76 1009.5
20260905200528 28 111 0.0 3.2 0.00 0.00 0.00 78 1009.1
20260905200009 28 269 0.0 6.4 0.00 0.00 0.00 79 1009.3
20260905195509 27 116 0.0 6.4 0.00 0.00 0.00 81 1009.4
20260905194951 26 171 0.0 6.4 0.00 0.00 0.00 81 1009.7
20260905194457 26 148 0.0 6.4 0.00 0.00 0.00 82 1009.7
20260905194006 26 132 0.0 3.2 0.00 0.00 0.00 80 1009.3
20260905192852 27 130 1.6 6.4 0.00 0.00 0.00 79 1008.8
20260905192348 26 131 1.6 6.4 0.00 0.00 0.00 81 1009.0
20260905191837 26 139 0.0 6.4 0.00 0.00 0.00 81 1009.2
20260905191321 26 164 0.0 4.8 0.00 0.00 0.00 78 1009.4
20260905190816 26 117 0.0 8.0 0.00 0.00 0.00 82 1009.7
20260905190303 27 157 0.0 8.0 0.00 0.00 0.00 74 1009.8
20260905185747 27 169 3.2 19.3 0.00 0.00 0.00 73 1009.5
20260905185238 28 351 6.4 19.3 0.00 0.00 0.00 63 1009.4
20260905184731 29 296 6.4 19.3 0.00 0.00 0.00 65 1009.3
20260905184220 30 44 4.8 19.3 0.00 0.00 0.00 65 1009.2
20260905183724 31 347 1.6 17.7 0.00 0.00 0.00 68 1009.3
20260905183209 31 111 0.0 0.0 0.00 0.00 0.00 80 1009.2
20260905182700 31 121 0.0 0.0 0.00 0.00 0.00 80 1008.6
20260905182203 31 121 0.0 0.0 0.00 0.00 0.00 73 1008.6
20260905181700 32 121 0.0 3.2 0.00 0.00 0.00 75 1008.5
20260905181206 32 138 0.0 0.0 0.00 0.00 0.00 74 1008.5
20260905180051 32 147 0.0 0.0 0.00 0.00 0.00 76 1008.6
20260905175535 32 147 0.0 0.0 0.00 0.00 0.00 78 1008.6
20260905175040 31 189 0.0 0.0 0.00 0.00 0.00 79 1008.9
20260905174545 31 189 0.0 0.0 0.00 0.00 0.00 78 1008.8
20260905174051 32 263 0.0 0.0 0.00 0.00 0.00 74 1008.8
20260905172951 31 163 0.0 0.0 0.00 0.00 0.00 66 1009.3
20260905172446 31 163 0.0 1.6 0.00 0.00 0.00 78 1009.2
20260905171951 32 259 1.6 0.0 0.00 0.00 0.00 70 1009.2
20260905171434 32 284 1.6 4.8 0.00 0.00 0.00 70 1009.2
20260905170930 31 288 1.6 4.8 0.00 0.00 0.00 72 1009.3
20260905170417 31 288 0.0 4.8 0.00 0.00 0.00 73 1009.3
20260905165240 31 322 0.0 0.0 0.00 0.00 0.00 75 1009.5
20260905164735 31 304 0.0 6.4 0.00 0.00 0.00 69 1009.6
20260905164229 31 292 0.0 6.4 0.00 0.00 0.00 72 1009.8
20260905163735 31 177 1.6 6.4 0.00 0.00 0.00 72 1009.8
20260905163226 31 274 1.6 6.4 0.00 0.00 0.00 73 1009.9
20260905161444 31 315 3.2 9.7 0.00 0.00 0.00 67 1010.1
20260905160940 31 273 1.6 9.7 0.00 0.00 0.00 73 1010.2
20260905160421 30 292 1.6 6.4 0.00 0.00 0.00 79 1010.3
20260905155920 30 66 0.0 6.4 0.00 0.00 0.00 75 1010.2
20260905155429 29 53 0.0 0.0 0.00 0.00 0.00 85 1010.3
20260905154933 29 78 0.0 0.0 0.00 0.00 0.00 86 1010.3
20260905154431 30 24 0.0 4.8 0.00 0.00 0.00 83 1010.4
20260905153937 28 261 0.0 4.8 0.00 0.00 0.00 87 1010.5
20260905153433 28 59 0.0 4.8 0.00 0.00 0.00 82 1010.6
20260905152915 28 334 0.0 1.6 0.00 0.00 0.00 89 1010.6
20260905151808 29 335 0.0 4.8 0.00 0.00 0.00 83 1010.6
20260905151252 28 285 0.0 0.0 0.00 0.00 0.00 85 1010.6
20260905150738 27 125 0.0 0.0 0.00 0.00 0.00 94 1010.7
20260905150220 27 125 0.0 0.0 0.00 0.00 0.00 94 1010.7
20260905145712 26 125 0.0 0.0 0.00 0.00 0.00 93 1010.8
20260905145210 26 125 0.0 0.0 0.00 0.00 0.00 94 1010.7
20260905144659 26 125 0.0 0.0 0.00 0.00 0.00 95 1010.9
20260905144143 26 74 0.0 0.0 0.00 0.00 0.00 98 1011.0
20260905143651 25 76 0.0 0.0 0.00 0.00 0.00 98 1011.2
20260905143158 24 321 0.0 0.0 0.00 0.00 0.00 99 1011.2
20260905142701 23 321 0.0 0.0 0.00 0.00 0.00 99 1011.3
20260905142209 23 321 0.0 0.0 0.00 0.00 0.00 99 1011.3
20260905141718 23 321 0.0 0.0 0.00 0.00 0.00 99 1011.4
20260905141225 23 321 0.0 0.0 0.00 0.00 0.00 99 1011.4
20260905140728 22 321 0.0 0.0 0.00 0.00 0.00 99 1011.6
20260905140235 22 321 0.0 0.0 0.00 0.00 0.00 99 1011.7
20260905135730 22 321 0.0 0.0 0.00 0.00 0.00 99 1011.7
20260905135220 22 321 0.0 0.0 0.00 0.00 0.00 99 1011.8
20260905134712 22 321 0.0 0.0 0.00 0.00 0.00 99 1011.8
20260905134212 22 321 0.0 0.0 0.00 0.00 0.00 99 1011.9
20260905133712 22 321 0.0 0.0 0.00 0.00 0.00 99 1012.0
20260905133154 21 321 0.0 0.0 0.00 0.00 0.00 99 1012.1
20260905132638 21 321 0.0 0.0 0.00 0.00 0.00 98 1012.1
20260905132141 21 321 0.0 0.0 0.00 0.00 0.00 98 1012.1
20260905131000 21 321 0.0 0.0 0.00 0.00 0.00 98 1012.2
20260905130451 21 321 0.0 0.0 0.00 0.00 0.00 98 1012.1
20260905125943 21 321 0.0 0.0 0.00 0.00 0.00 98 1012.0
20260905124824 21 321 0.0 0.0 0.00 0.00 0.00 98 1012.0
20260905124322 21 321 0.0 0.0 0.00 0.00 0.00 98 1012.0
20260905123203 21 321 0.0 0.0 0.00 0.00 0.00 98 1011.9
20260905122019 21 321 0.0 0.0 0.00 0.00 0.00 98 1011.8
20260905121524 21 321 0.0 0.0 0.00 0.00 0.00 98 1011.8
20260905121022 21 321 0.0 0.0 0.00 0.00 0.00 98 1011.8
20260905120503 21 321 0.0 0.0 0.00 0.00 0.00 98 1011.8
20260905120013 21 321 0.0 0.0 0.00 0.00 0.00 98 1011.8
20260905115456 21 321 0.0 0.0 0.00 0.00 0.00 98 1011.7
20260905115003 20 321 0.0 0.0 0.00 0.00 0.00 98 1011.7
20260905114511 20 321 0.0 0.0 0.00 0.00 0.00 98 1011.6
20260905114019 20 321 0.0 0.0 0.00 0.00 0.00 98 1011.5
20260905113521 20 321 0.0 3.2 0.00 0.00 0.00 98 1011.5
20260905112406 20 345 0.0 1.6 0.00 0.00 0.00 98 1011.2
20260905111250 20 350 1.6 3.2 0.00 0.00 0.00 98 1011.2
20260905110746 20 327 0.0 3.2 0.00 0.00 0.00 98 1011.1
20260905110243 20 0 0.0 0.0 0.00 0.00 0.00 98 1011.1
20260905105729 20 0 0.0 0.0 0.00 0.00 0.00 98 1010.7
20260905105233 21 0 0.0 0.0 0.00 0.00 0.00 98 1010.7
20260905104714 21 0 0.0 3.2 0.00 0.00 0.00 98 1010.5
20260905104216 21 321 0.0 3.2 0.00 0.00 0.00 97 1010.5
20260905103712 21 321 0.0 3.2 0.00 0.00 0.00 97 1010.5
20260905103156 21 321 0.0 0.0 0.00 0.00 0.00 97 1010.6
20260905102659 21 321 0.0 0.0 0.00 0.00 0.00 97 1010.6
20260905100924 21 321 0.0 0.0 0.00 0.00 0.00 98 1010.5
20260905100418 21 321 0.0 3.2 0.00 0.00 0.00 98 1010.6
20260905095923 21 321 0.0 0.0 0.00 0.00 0.00 98 1010.7